STARLINK-2437

Last updated on Sat May 08 2021 00:02:03 GMT+0000 (Coordinated Universal Time)

1 48102U 21027L 21127.58334491 .00056478 00000-0 40411-3 0 9990 2 48102 53.0475 191.7769 0002313 23.0161 265.3640 15.73195028 1775

Satellite not in orbit